Location: Bougoura
(13.1861°N, 5.0773°W)
Time: 09:48:03
(UTC+00:00)

Okean O Rocket - Pass Details

Date: 21 January 2021
Orbit: 622 x 645 km, 98.2° (Epoch: 25 February)

Event Time Altitude Azimuth Distance (km) Brightness Sun altitude
Rises 06:05:14 0° 25° (NNE) 2,895 5.1 -10.5°
Reaches altitude 10° 06:07:34 10° 34° (NE) 1,987 4.4 -10.0°
Maximum altitude 06:11:30 35° 100° (E) 1,008 3.5 -9.1°
Drops below altitude 10° 06:15:26 10° 167° (SSE) 1,983 4.6 -8.2°
Sets 06:17:46 0° 175° (S) 2,888 5.3 -7.6°
